Tracking 27422 objects as of 30-May-2023
HD Live streaming from Space Station
objects crossing your sky now

DSAT

Track DSAT now!
10-day predictions
DSAT is classified as:


NORAD ID: 42794
Int'l Code: 2017-036AF
Perigee: 506.4 km
Apogee: 669.1 km
Inclination: 97.5 °
Period: 96.3 minutes
Semi major axis: 6958 km
RCS: Unknown
Launch date: June 23, 2017
Source: Italy (IT)
Launch site: SRIHARIKOTA (SRI)

Uplink (MHz):
Downlink (MHz): 437.505
Beacon (MHz): 437.505
Mode: 4800bps GMSK CW
Call sign: U1-DSAT-U1
Status: Inactive

Your satellite tracking list
Your tracking list is empty




NASA's NSSDC Master Catalog

Two Line Element Set (TLE):
1 42794U 17036AF  23150.40728024  .00005108  00000-0  40624-3 0  9994
2 42794  97.4647 143.2952 0116896   2.7230 357.4602 14.95558119323278
Source of the keplerian elements: AMSAT